Location: Gauravaram
(16.6995°N, 80.5417°E)
Time: 09:37:03
(UTC+00:00)

Cosmos 1484 Rocket - Pass Details

Date: 03 August 2024
Orbit: 474 x 514 km, 97.6° (Epoch: 14 September)

Event Time Altitude Azimuth Distance (km) Brightness Sun altitude
Rises 22:40:08 0° 19° (NNE) 2,515 6.9 -22.7°
Reaches altitude 10° 22:42:14 10° 26° (NNE) 1,638 5.9 -22.3°
Maximum altitude 22:45:38 47° 100° (E) 641 3.4 -21.5°
Enters shadow 22:47:05 28° 157° (SSE) 914 3.9 -21.2°
